Regional Weather Roundup
Issued by NWS

Home | Current Version | Previous Version | Graphics & Text | Print | Product List | Glossary On
Versions: 1 2 3 4 5 6 7 8 9 10 11 12 13 14 15 16 17 18 19 20 21 22 23 24 25 26 27 28 29 30 31 32 33 34 35 36 37 38 39 40 41 42 43 44 45 46 47 48 49 50
000
ASUS43 KOAX 280910
RWRNE

WEATHER ROUNDUP FOR NEBRASKA
NATIONAL WEATHER SERVICE OMAHA NE
300 AM CST SAT FEB 28 2015

NOTES: SATELLITE DATA IS BEING USED TO AUGMENT CLOUD COVER ABOVE
       12000 FEET.
       "FAIR" INDICATES FEW OR NO CLOUDS BELOW 12,000 FEET WITH NO
       SIGNIFICANT WEATHER AND/OR OBSTRUCTIONS TO VISIBILITY.

  * THESE STATIONS DO NOT REPORT WEATHER SUCH AS RAIN...SNOW OR FOG.

NEZ001>004-019>022-054>056-281000-
NEBRASKA PANHANDLE

CITY           SKY/WX    TMP DP  RH WIND       PRES   REMARKS
SCOTTSBLUFF    CLEAR      9   4  80 SE9       29.99F WCI  -4
ALLIANCE       CLEAR      8   4  83 S14       30.00F WCI  -8
CHADRON        CLEAR     11   4  73 S5        30.03S WCI   3
KIMBALL        PTCLDY     4   0  83 S7        29.90F WCI  -8
SIDNEY         CLEAR      6   2  83 S9        29.99S WCI  -8
$$

NEZ057>060-069>072-079>082-281000-
SOUTHWEST NEBRASKA

CITY           SKY/WX    TMP DP  RH WIND       PRES   REMARKS
NORTH PLATTE   CLOUDY    13   5  70 S9        30.19F WCI   1
IMPERIAL         N/A     14   7  73 S12       30.12F WCI   0
LEXINGTON      CLOUDY    15   8  73 S9        30.26F WCI   4
MCCOOK         MOCLDY    14   6  70 SE8       30.22F WCI   3
OGALLALA       FLURRIES  13   9  83 S6        30.11F WCI   4
$$

NEZ005>010-023>029-035>040-094-281000-
NORTH CENTRAL NEBRASKA

CITY           SKY/WX    TMP DP  RH WIND       PRES   REMARKS
VALENTINE      MOCLDY    16   6  65 SW17G23   30.15S WCI   0
AINSWORTH      PTCLDY    10   4  75 S10       30.18F WCI  -3
BROKEN BOW     CLOUDY    13   4  67 S12       30.24F WCI  -1
O`NEILL        CLEAR     10   3  74 S12       30.29F WCI  -5
ORD            CLEAR      9   1  70 S10       30.30F WCI  -5
THEDFORD       FLURRIES  17   9  71 S13       30.16F WCI   3
$$

NEZ041-046>049-061>064-073>077-083>087-281000-
SOUTH CENTRAL NEBRASKA

CITY           SKY/WX    TMP DP  RH WIND       PRES   REMARKS
GRAND ISLAND   CLEAR      8   3  80 S9        30.37F WCI  -5
AURORA         CLEAR      9   2  72 S7        30.37F WCI  -2
HASTINGS       CLEAR      8   2  76 S7        30.35F WCI  -3
HEBRON         CLEAR      8   2  78 CALM      30.43F
HOLDREGE       FLURRIES  12   7  80 SE9       30.28F WCI  -1
KEARNEY *      PTCLDY     7   1  78 S8        30.32S WCI  -6
YORK           CLEAR      9   3  78 S9        30.40F WCI  -5
$$

NEZ011>018-030>034-042>045-281000-
NORTHEAST NEBRASKA

CITY           SKY/WX    TMP DP  RH WIND       PRES   REMARKS
NORFOLK        CLEAR      8   1  73 S9        30.38F WCI  -5
ALBION         PTCLDY     5  -1  75 S5        30.36F WCI  -4
BLAIR          CLEAR     10   2  70 SE6       30.45F WCI   0
COLUMBUS *     CLEAR      7  -6  56 S5        30.42F WCI  -2
FREMONT        CLEAR     12   3  67 S6        30.46F WCI   3
TEKAMAH        CLEAR      4  -2  76 SE7       30.49F WCI  -8
WAYNE          CLEAR      5  -1  76 S10       30.42F WCI -10
$$

NEZ050>053-065>068-078-088>093-281000-
SOUTHEAST NEBRASKA

CITY           SKY/WX    TMP DP  RH WIND       PRES   REMARKS
LINCOLN        CLEAR      5   0  79 S7        30.47F WCI  -7
OMAHA EPPLEY   CLEAR      8   0  69 SE6       30.51F WCI  -2
BEATRICE       CLEAR     11   3  70 S5        30.45F WCI   3
FALLS CITY     CLOUDY    14   5  67 CALM      30.51F
NEBRASKA CITY  CLEAR      8  -3  62 S5        30.49F WCI  -1
PLATTSMOUTH    CLEAR      8  -1  67 SE6       30.48F WCI  -2
$$

NEZ044-045-051>053-067-281000-
OMAHA AREA

CITY           SKY/WX    TMP DP  RH WIND       PRES   REMARKS
OMAHA EPPLEY   CLEAR      8   0  69 SE6       30.51F WCI  -2
BLAIR          CLEAR     10   2  70 SE6       30.45F WCI   0
FREMONT        CLEAR     12   3  67 S6        30.46F WCI   3
MILLARD        CLEAR      9   1  69 SE3       30.49F
OFFUTT AFB     CLEAR      8   0  69 SE5       30.49F WCI  -1
PLATTSMOUTH    CLEAR      8  -1  67 SE6       30.48F WCI  -2
WAHOO          FAIR       5  -2  72 SE5       30.46F WCI  -4
$$


USA.gov is the U.S. government's official web portal to all federal, state and local government web resources and services.